Location: Bodensee
(51.6047°N, 10.1333°E)
Time: 19:12:03
(UTC+00:00)

Daily predictions for brighter satellites

Satellite Brightness Start Highest point End
(mag) Time Altitude Azimuth Time Altitude Azimuth Time Altitude Azimuth
Cosmos 1980 Rocket 4.1 17:39:01 10° W 17:43:54 28° NW 17:48:49 10° NNE
IRS-1C Rocket 4.2 17:39:02 10° SSE 17:44:19 89° WSW 17:49:39 10° NNW
SeaSat 1 3.9 17:41:55 10° ENE 17:45:09 17° ESE 17:48:23 10° SE
FALCON 9 DEB 3.0 17:42:21 10° WNW 17:45:32 77° SSW 17:48:42 10° ESE
Cosmos 1536 4.3 17:42:52 10° SE 17:45:32 18° E 17:48:13 10° NE
Cosmos 2242 Rocket 3.6 17:41:55 10° N 17:46:25 67° ENE 17:50:50 10° SSE
Cosmos 1633 Rocket 3.8 17:42:41 10° SSW 17:47:04 61° WNW 17:51:30 10° N
MOS 1 Rocket 3.9 17:42:43 10° N 17:47:52 76° WNW 17:53:13 10° SSW
Gbstr 26 Del rocket 3.3 17:45:50 10° W 17:50:12 89° NNE 17:55:34 10° E
Abrixas rocket 3.2 17:51:52 10° WSW 17:54:02 26° SSW 17:56:10 10° SE
Cosmos 2333 Rocket 2.7 17:49:22 10° S 17:54:37 40° ESE 17:59:55 10° NE
Resurs 01 Rocket 3.6 17:54:51 10° ENE 17:56:14 11° NE 17:57:38 10° NNE
Cosmos 1295 Rocket 4.5 17:50:11 10° S 17:56:24 83° E 18:02:35 10° NNE
Meteor 2-4 Rocket 3.9 17:51:24 10° NNW 17:57:19 87° W 18:03:16 10° S
Cosmos 2322 Rocket 2.8 17:55:08 10° SW 18:00:42 61° NW 18:06:19 10° NNE
Helios 1A Rocket 2.9 17:56:54 10° SSE 18:00:52 60° ENE 18:04:51 10° N
Lacrosse 4 Rocket 2.0 17:57:41 10° S 18:01:47 39° ESE 18:05:59 10° NE
GP-B 3.2 17:58:33 10° SSE 18:02:53 57° E 18:07:16 10° N
ARGOS 3.2 17:59:41 10° SSE 18:05:07 82° ENE 18:10:35 10° NNW
ERBS 3.6 18:03:21 10° WNW 18:06:23 32° N 18:09:25 10° ENE
Cosmos 192 4.5 18:03:38 10° S 18:08:21 50° ESE 18:13:08 10° NNE
CZ-4B R/B 2.3 18:06:16 10° N 18:09:14 48° WNW 18:12:15 10° SSW
Cosmos 1869 Rocket 3.9 18:05:18 10° SSE 18:09:26 42° E 18:13:38 10° NNE
CZ-4 R/B 2.1 18:06:42 10° S 18:10:31 56° W 18:14:27 10° NNW
Cosmos 2219 Rocket 2.4 18:05:46 10° S 18:11:03 46° ESE 18:16:24 10° NE
Cosmos 2154 Rocket 4.5 18:07:37 10° SSW 18:13:47 67° WNW 18:20:00 10° N
ERS-2 2.1 18:10:11 10° NNE 18:13:49 56° ESE 18:17:24 10° S
CZ-2C R/B 2.8 18:08:46 10° NNE 18:14:06 50° E 18:19:16 10° S
FALCON 9 DEB 3.5 18:11:04 10° WNW 18:14:10 52° SSW 18:16:47 13° SE
Cosmos 1689 Rocket 1.9 18:12:32 10° NNE 18:15:25 64° ESE 18:18:17 10° S
Cosmos 1238 Rocket 3.6 18:14:20 10° SSE 18:17:36 25° E 18:20:29 10° NE
Cosmos 1378 3.4 18:14:06 10° N 18:17:43 45° ENE 18:21:17 10° SSE
USA 305 2.9 18:15:09 10° WNW 18:19:27 81° NNE 18:22:40 17° ESE
H-2A R/B 4.3 18:16:07 10° N 18:19:34 26° WNW 18:23:02 10° WSW
SL-08 RB Rocket 3.7 18:15:28 10° SSE 18:20:00 81° ENE 18:24:38 10° NNW
CREW DRAGON DEMO-1 DEB 4.1 18:21:08 10° SSW 18:23:22 21° SSE 18:23:59 20° SE
NOSS 3-2 (A) 4.0 18:18:41 10° S 18:23:37 31° ESE 18:29:08 10° NE
FALCON 9 DEB 3.5 18:20:30 10° WNW 18:23:38 53° SSW 18:25:51 17° SE
HJ-1C 3.9 18:21:19 10° S 18:24:36 62° W 18:27:53 10° NNW
COSMOS 2428 2.9 18:20:20 10° S 18:25:47 50° ESE 18:31:16 10° NE
Cosmos 1733 Rocket 4.1 18:23:24 10° SE 18:26:52 24° E 18:30:21 10° NE
SL-16 R/B 3.8 18:24:03 10° WSW 18:29:15 36° NW 18:34:30 10° NNE
USA 307 2.9 18:28:54 10° WNW 18:33:13 87° NNE 18:35:52 23° ESE
Cosmos 2369 Rocket 4.0 18:29:48 10° N 18:33:20 17° NNE 18:36:12 12° ENE
USA 306 2.9 18:30:10 10° WNW 18:34:30 89° NNE 18:37:06 23° ESE
SL-8 Rocket 3.9 18:28:40 10° S 18:34:52 80° E 18:41:05 10° NNE
CENTAUR R/B 3.3 18:30:31 10° SSE 18:35:27 27° ESE 18:41:03 10° ENE
Cosmos 1898 Rocket 4.0 18:31:06 10° NNW 18:36:03 41° NE 18:39:11 21° ESE
Cosmos 1066 Rocket 4.2 18:30:16 10° N 18:36:04 79° ENE 18:41:55 10° SSE
ATLAS CENTAUR R/B 2.5 18:33:33 10° WSW 18:36:59 37° NW 18:40:30 10° NNE
NOSS 0 Rocket 4.4 18:31:49 10° S 18:37:16 34° ESE 18:42:45 10° NE
Cosmos 1743 3.4 18:37:54 10° SSE 18:41:22 32° E 18:44:52 10° NNE
Cosmos 1666 3.2 18:39:30 10° SSW 18:43:10 60° WNW 18:46:55 10° N
USA 308 2.8 18:39:44 10° WNW 18:44:02 86° SSW 18:46:15 28° ESE
CSL-04 Rocket 4.2 18:40:42 10° S 18:46:10 62° WSW 18:51:37 10° NNW
Meteor 1-23 Rocket 4.1 18:40:51 10° N 18:46:30 75° ENE 18:52:10 10° SSE
Cosmos 2322 3.8 18:40:57 10° SSW 18:46:42 86° WNW 18:52:27 10° NNE
ASTEX 1 3.4 18:45:40 10° NNE 18:50:30 57° E 18:55:19 10° S
BREEZE-M DEB (TANK) 4.2 18:48:37 10° SSW 18:50:06 22° SSE 18:50:06 22° SSE
Cosmos 2366 rocket 4.0 18:46:47 10° S 18:53:07 88° ESE 18:59:33 10° N
H-2A R/B 4.0 18:48:48 10° SSW 18:53:39 33° W 18:58:31 10° NNW
Cosmos 1674 Rocket 3.9 18:49:45 10° N 18:53:52 42° ENE 18:55:16 32° ESE
SJ-6B 2.7 18:52:44 14° SSE 18:56:12 79° ENE 19:00:13 10° NNW
Cosmos 990 Rocket 4.0 18:51:30 10° NNW 18:56:40 64° ENE 18:59:40 25° SE
Cosmos 2221 Rocket 3.5 18:53:29 10° N 18:57:57 82° E 19:02:10 11° SSE
Ariane Rocket 2.9 18:55:34 15° SSE 18:59:47 70° ENE 19:04:53 10° NNW
USA 186 1.8 18:59:36 32° SSW 19:00:32 55° W 19:03:10 10° NNW
Cosmos 2297 4.4 18:55:18 10° NNW 19:00:38 37° NE 19:02:40 28° E
ARIANE 5 R/B 4.3 19:01:45 18° NE 19:01:45 18° NE 19:04:35 10° NNE
OBJECT-B 0.6 19:02:09 42° SSE 19:03:08 82° ENE 19:06:22 10° N
Cosmos 1763 Rocket 4.1 18:58:31 10° SSE 19:03:14 33° ESE 19:07:57 10° NE
Okean 2 4.2 19:01:23 10° N 19:04:48 32° ENE 19:04:48 32° ENE
NOSS 3-2 (C) 3.8 19:00:09 10° S 19:05:15 36° ESE 19:08:10 24° ENE
SL-08 R/B 4.5 18:59:46 10° S 19:06:10 71° E 19:12:37 10° NNE
Meteor 1-11 Rocket 3.9 19:01:28 10° SSW 19:07:07 76° WNW 19:12:43 10° N
Cosmos 1378 Rocket 3.8 19:04:02 10° N 19:08:23 49° ENE 19:09:21 42° ESE
Cosmos 2360 Rocket 3.7 19:06:09 10° WSW 19:11:22 37° NW 19:16:38 10° NNE
Cosmos 1943 Rocket 3.0 19:08:56 10° NNW 19:14:04 33° NE 19:15:25 30° ENE
Cosmos 468 Rocket 4.3 19:09:52 10° S 19:14:50 42° ESE 19:19:49 10° NE
SJ 16-02 2.1 19:11:24 10° NNW 19:15:42 51° WSW 19:19:19 14° S
Cosmos 1727 Rocket 4.2 19:09:37 10° NNW 19:15:48 73° W 19:21:59 10° S
DMSP B5D2-2 4.1 19:11:15 10° NNE 19:16:31 81° WNW 19:21:43 10° SSW
Cosmos 1821 Rocket 3.9 19:11:15 10° S 19:17:21 63° E 19:23:24 10° NNE
Cosmos 2278 Rocket 2.5 19:12:24 10° NW 19:18:02 65° WSW 19:22:11 18° SSE
Cosmos 2237 Rocket 2.3 19:12:43 10° S 19:18:11 50° ESE 19:23:40 10° NE
Cosmos 1544 2.9 19:15:28 10° S 19:19:06 89° ESE 19:22:48 10° N
Cosmos 1000 Rocket 4.4 19:14:12 10° N 19:20:32 78° E 19:25:17 19° SSE
MOS 1 4.3 19:15:42 14° SSE 19:20:43 83° WSW 19:26:25 10° NNW
SL-4 R/B 4.4 19:20:41 10° SW 19:21:21 10° SW 19:22:00 10° SW
Meteor 1-21 4.4 19:15:49 10° N 19:21:25 54° ENE 19:23:05 40° ESE
Cosmos 1536 3.7 19:17:42 10° SSW 19:21:35 50° WNW 19:25:29 10° N
USA 81 3.9 19:17:50 10° S 19:23:04 72° E 19:28:20 10° N
SeaSat 1 2.4 19:18:18 10° NNE 19:23:17 89° NW 19:28:14 10° SSW
SPOT 3 Rocket 3.5 19:24:24 43° SE 19:25:55 62° ENE 19:31:06 10° N
Cosmos 2239 Rocket 4.4 19:20:52 10° S 19:27:03 63° E 19:33:13 10° NNE
SME Rocket 4.0 19:23:14 10° NNE 19:31:08 90° NW 19:36:13 10° SSW
Cosmos 1934 Rocket 4.1 19:30:07 43° ESE 19:31:14 47° E 19:37:06 10° NNE
Resurs 01 Rocket 1.5 19:31:41 64° E 19:31:54 65° ENE 19:36:18 10° N
Meteor 2-20 Rocket 4.5 19:25:50 10° NNW 19:31:57 79° W 19:37:09 15° S
SPOT 1/Viking Rocket 4.0 19:33:55 41° ENE 19:33:55 41° ENE 19:38:46 10° N
USA 234 3.5 19:33:09 41° ESE 19:34:14 44° SE 19:40:25 10° SSW
Gbstr 26 Del rocket 3.9 19:32:24 10° WNW 19:37:04 52° SSW 19:38:19 43° SSE
Cosmos 1937 Rocket 3.3 19:33:34 10° NNW 19:38:47 85° ENE 19:39:49 58° SSE
Cosmos 2333 Rocket 3.2 19:33:22 10° WSW 19:38:51 46° NW 19:44:23 10° NNE
Cosmos 2123 Rocket 3.9 19:32:47 10° N 19:39:03 69° ENE 19:41:02 44° SE
Lacrosse 4 Rocket 3.0 19:36:21 10° WSW 19:40:31 38° NW 19:44:45 10° NNE
ERBS 3.8 19:39:58 10° NW 19:42:16 32° NNW 19:42:16 32° NNW
IGS 5A 3.9 19:44:27 50° NNE 19:44:27 50° NNE 19:47:43 10° N
SPOT 5 4.4 19:45:45 21° NNE 19:45:45 21° NNE 19:47:53 10° N
USA 238 DEB 3.5 19:38:27 10° SW 19:45:02 78° SE 19:52:00 10° NE
USA 238 3.5 19:38:34 10° SW 19:45:08 77° SE 19:52:06 10° NE
Cosmos 1842 3.5 19:41:44 10° NNW 19:45:12 67° NNW 19:45:12 67° NNW
Resurs 1-3 4.0 19:45:27 40° SSW 19:46:47 59° W 19:51:09 10° NNW
CZ-2C R/B 4.4 19:49:25 10° N 19:54:11 32° WNW 19:58:51 10° WSW
Cosmos 2219 Rocket 3.4 19:49:51 10° WSW 19:55:07 40° NW 20:00:26 10° NNE
Terra 3.6 20:00:53 21° NNE 20:00:53 21° NNE 20:03:07 10° N
USA 305 4.1 19:55:18 10° WNW 19:58:46 35° SW 19:58:46 35° SW
ERS-1 Rocket 4.0 20:03:06 33° NNE 20:03:06 33° NNE 20:06:29 10° N
Cosmos 1980 3.7 19:57:15 10° SSW 20:02:54 81° WNW 20:08:36 10° NNE
Cosmos 1733 Rocket 4.2 20:00:17 10° SW 20:04:25 43° WNW 20:08:38 10° N
COSMOS 2428 4.0 20:04:56 10° WSW 20:10:14 38° NW 20:15:35 10° NNE
Meteor 2-9 Rocket 4.0 20:10:29 82° WSW 20:10:39 85° WNW 20:16:01 10° NNE
Spot 2 Rocket 3.8 20:14:35 56° NNE 20:14:35 56° NNE 20:18:45 10° NNW
NOSS 3-2 (A) 3.7 20:08:06 10° WSW 20:13:54 69° NW 20:20:44 10° NE
Cosmos 1605 Rocket 4.1 20:15:57 59° ENE 20:15:57 59° ENE 20:21:27 10° NNE
ATLAS CENTAUR R/B 3.9 20:14:49 10° NW 20:16:52 14° NNW 20:17:48 13° N
Cosmos 2369 Rocket 2.7 20:13:16 10° NNW 20:18:00 47° NNE 20:18:00 47° NNE
NOSS 0 Rocket 4.5 20:17:26 10° SW 20:23:29 57° NW 20:29:34 10° NNE
CENTAUR R/B 2.6 20:19:09 10° SW 20:25:17 81° NW 20:32:43 10° NE
ARIANE 5 R/B 4.1 20:39:17 35° NNW 20:39:17 35° NNW 20:41:58 10° NNW
Cosmos 1763 Rocket 4.4 20:39:48 10° SW 20:44:55 46° WNW 20:50:03 10° NNE
Cosmos 2297 4.3 20:39:28 10° NW 20:44:37 51° W 20:44:37 51° W
USA 281 3.8 20:54:08 46° NNE 20:54:08 46° NNE 20:59:36 10° NNW
NOSS 3-2 (C) 3.8 20:49:58 10° WSW 20:55:46 63° NW 21:02:36 10° NE
Cosmos 1943 Rocket 3.0 20:52:35 10° NW 20:56:57 48° WNW 20:56:57 48° WNW
Cosmos 2237 Rocket 3.5 20:57:07 10° WSW 21:02:26 38° NW 21:07:45 10° NNE
Resurs 01 Rocket 4.1 21:09:14 17° W 21:09:14 17° W 21:11:48 10° NW
USA 234 4.2 21:20:31 37° WSW 21:20:31 37° WSW 21:24:10 10° WSW
Lacrosse 4 Rocket 4.5 21:18:13 10° NW 21:20:28 13° NNW 21:22:05 12° N
SL-16 R/B 4.4 21:29:37 16° NNE 21:29:37 16° NNE 21:30:45 10° NNE
Terra 4.2 21:39:46 20° NNW 21:39:46 20° NNW 21:41:21 10° NNW
Cosmos 2369 Rocket 4.3 21:57:36 10° NW 21:59:48 22° WNW 21:59:48 22° WNW
CENTAUR R/B 3.9 22:10:52 10° W 22:17:01 38° NNW 22:24:15 10° NE
ATLAS 3B R/B 4.3 23:35:00 28° NNE 23:35:00 28° NNE 23:38:33 10° NE
